BISONSAT

Satellite information

Favourite Embed

Satellite Type and Status

PAYLOADIN ORBIT

Key statistics

Satellite BISONSAT at a glance.

Uptime

3559

Days in orbit

Revolutions

≈ 14.9

Per day

Orbit

LEO

Low Earth Orbit

Inclination

64.8

Latest

Satellite identification and parameters

Extended collection of information and parameters for BISONSAT.

Object identification

Identified? True

Debris? False

Object name: BISONSAT

International designator: 2015-058E

Object number (NORAD): 40968

Object ID (CCSDS): 40968

Country: UNITED STATES OF AMERICA (US)

Current information (Y/N): Y

RCS size: SMALL

Orbital parameters

Period: 96.509 minutes

Inclination: 64.7759 deg

SMA: 6969.556 km

Apoapsis: 693.748 km

Periapsis: 489.094 km

RAAN: 261.162 deg

Eccentricy: 0.014682

Argument of periapsis: 186.0172 deg

Mean anomaly: 173.9185 deg

Mean motion: 14.92090266 rev/day

Mean motion (dot): 0.0000429 rev/day2

B* drag term: 0.00035605 1/REarth

Two-line elements (TLE)

Creation date: July 5, 2025, 10:26 p.m.

Reference frame: TEME

Reference center: EARTH

Epoch: July 5, 2025, 2:56 p.m. UTC

TLE line 0: 0 BISONSAT

TLE line 1: 1 40968U 15058E 25186.62257259 .00004290 00000-0 35605-3 0 9993

TLE line 2: 2 40968 64.7759 261.1620 0146820 186.0172 173.9185 14.92090266 64880

Live tracking on map

Real-time ground track for satellite BISONSAT.

In-orbit conjunctions

There are no conjunctions computed for BISONSAT, at the moment. Check back to stay up to date, as we update our databases every day.

Go to all conjunctions

Associated space launch

Classified payload for the U.S. National Reconnaissance Office.

BISONSAT was lifted into orbit during the mission ‘Atlas V 401 | NROL-55 (Multipayload mission)’, on board a Atlas V 401 space rocket.

The launch took place on Oct. 8, 2015, 12:49 p.m. from Space Launch Complex 3E.

For more information about the launch, click the button.

Launch to space Atlas V 401 | NROL-55 (Multipayload mission)
Atlas V 401 | NROL-55 (Multipayload mission)

Agency: N/A

Status: Launch Successful

Launch date: Oct. 8, 2015, 12:49 p.m. UTC

Rocket: Atlas V 401

Launch pad: Space Launch Complex 3E

Location: Vandenberg SFB, CA, USA

...

Latest news about this satellite

There are no fresh news available about this satellite. Check back as we update our databases every day.


Newsletter sign-up

Weekly statistics, charts and insights to help you stay on top of the space industry.